Location: Bakov nad Jizerou
(50.4784°N, 14.9394°E)
Time: 08:24:55
(UTC+00:00)

Cosmos 968 Rocket - Visible Passes

Search period start: 28 October 2021 00:00
Search period end: 07 November 2021 00:00
Orbit: 740 x 771 km, 74.0° (Epoch: 27 October)

Date Brightness Start Highest point End Pass type
(mag) Time Alt. Az. Time Alt. Az. Time Alt. Az.
28 Oct 5.7 19:10:22 10° NNW 19:11:38 17° N 19:11:38 17° N visible
29 Oct 5.4 18:29:53 10° N 18:31:36 17° N 18:31:36 17° N visible
29 Oct 6.3 20:11:13 10° NNW 20:11:37 12° NNW 20:11:37 12° NNW visible
30 Oct 5.4 17:49:36 10° N 17:51:37 15° NNE 17:51:37 15° NNE visible
30 Oct 5.8 19:30:24 10° NNW 19:31:36 17° NNW 19:31:36 17° NNW visible
31 Oct 5.5 17:09:54 10° NNE 17:11:26 11° NE 17:11:38 11° NE visible
31 Oct 5.3 18:49:44 10° NNW 18:51:37 21° N 18:51:37 21° N visible
01 Nov 5.0 18:09:11 10° N 18:11:41 22° NNE 18:11:41 22° NNE visible
01 Nov 6.1 19:50:44 10° NNW 19:51:42 15° NW 19:51:42 15° NW visible
02 Nov 5.0 17:28:49 10° N 17:31:47 19° NE 17:31:47 19° NE visible
02 Nov 5.4 19:09:51 10° NNW 19:11:47 23° NNW 19:11:47 23° NNW visible
03 Nov 5.3 16:48:45 10° N 16:51:10 13° NE 16:51:54 13° NE visible
03 Nov 4.7 18:29:08 10° NNW 18:31:54 30° N 18:31:54 30° N visible
03 Nov 6.4 20:11:32 10° NW 20:11:55 12° NW 20:11:55 12° NW visible
04 Nov 4.5 17:48:32 10° N 17:52:05 31° NNE 17:52:05 31° NNE visible
04 Nov 5.7 19:30:18 10° NW 19:32:05 21° NW 19:32:05 21° NW visible
05 Nov 4.7 17:08:04 10° N 17:12:07 23° NE 17:12:19 22° NE visible
05 Nov 4.8 18:49:21 10° NNW 18:52:20 35° NW 18:52:20 35° NW visible
06 Nov 5.1 16:27:50 10° N 16:30:52 15° NE 16:32:36 13° ENE visible
06 Nov 3.8 18:08:33 10° NNW 18:12:38 53° N 18:12:38 53° N visible
06 Nov 6.2 19:51:20 10° NW 19:52:39 15° WNW 19:52:39 15° WNW visible
